#Datum;Uhrzeit;WR;Pac;DaySum;Status;WR;Pac;DaySum;Status;Pdc1;Udc;Temp;WR;Pac;DaySum;Status;Pdc1;Udc;Temp;WR;Pac;DaySum;Status;Pdc1;Udc;Temp;WR;Pac;DaySum;Status;Pdc1;Pdc2;Udc1;Udc2;Temp;WR;Pac;DaySum;Status;Pdc1;Pdc2;Udc1;Udc2;Temp;WR;Pac;DaySum;Status;Pdc1;Udc;Temp;WR;Pac;DaySum;Status;Pdc1;Udc;Temp;WR;Pac;DaySum;Status;Pdc1;Udc;Temp
13.01.19;23:55:00;1;225;8544;0;2;0;820;0;0;0;0;3;0;956;0;0;0;0;4;0;801;0;0;0;0;5;0;473;0;0;0;0;0;0;6;0;436;0;0;0;0;0;0;7;0;1745;0;0;0;0;8;0;1916;0;0;0;0;9;0;1046;0;0;0;0
13.01.19;23:50:00;1;225;8525;0;2;0;820;0;0;0;0;3;0;956;0;0;0;0;4;0;801;0;0;0;0;5;0;473;0;0;0;0;0;0;6;0;436;0;0;0;0;0;0;7;0;1745;0;0;0;0;8;0;1916;0;0;0;0;9;0;1046;0;0;0;0
13.01.19;23:45:00;1;262;8506;0;2;0;820;0;0;0;0;3;0;956;0;0;0;0;4;0;801;0;0;0;0;5;0;473;0;0;0;0;0;0;6;0;436;0;0;0;0;0;0;7;0;1745;0;0;0;0;8;0;1916;0;0;0;0;9;0;1046;0;0;0;0
13.01.19;23:40:00;1;300;8483;0;2;0;820;0;0;0;0;3;0;956;0;0;0;0;4;0;801;0;0;0;0;5;0;473;0;0;0;0;0;0;6;0;436;0;0;0;0;0;0;7;0;1745;0;0;0;0;8;0;1916;0;0;0;0;9;0;1046;0;0;0;0
13.01.19;23:35:00;1;302;8458;0;2;0;820;0;0;0;0;3;0;956;0;0;0;0;4;0;801;0;0;0;0;5;0;473;0;0;0;0;0;0;6;0;436;0;0;0;0;0;0;7;0;1745;0;0;0;0;8;0;1916;0;0;0;0;9;0;1046;0;0;0;0
13.01.19;23:30:00;1;359;8433;0;2;0;820;0;0;0;0;3;0;956;0;0;0;0;4;0;801;0;0;0;0;5;0;473;0;0;0;0;0;0;6;0;436;0;0;0;0;0;0;7;0;1745;0;0;0;0;8;0;1916;0;0;0;0;9;0;1046;0;0;0;0
13.01.19;23:25:00;1;259;8408;0;2;0;820;0;0;0;0;3;0;956;0;0;0;0;4;0;801;0;0;0;0;5;0;473;0;0;0;0;0;0;6;0;436;0;0;0;0;0;0;7;0;1745;0;0;0;0;8;0;1916;0;0;0;0;9;0;1046;0;0;0;0
13.01.19;23:20:00;1;433;8387;0;2;0;820;0;0;0;0;3;0;956;0;0;0;0;4;0;801;0;0;0;0;5;0;473;0;0;0;0;0;0;6;0;436;0;0;0;0;0;0;7;0;1745;0;0;0;0;8;0;1916;0;0;0;0;9;0;1046;0;0;0;0
13.01.19;23:15:00;1;256;8338;0;2;0;820;0;0;0;0;3;0;956;0;0;0;0;4;0;801;0;0;0;0;5;0;473;0;0;0;0;0;0;6;0;436;0;0;0;0;0;0;7;0;1745;0;0;0;0;8;0;1916;0;0;0;0;9;0;1046;0;0;0;0
13.01.19;23:10:00;1;257;8316;0;2;0;820;0;0;0;0;3;0;956;0;0;0;0;4;0;801;0;0;0;0;5;0;473;0;0;0;0;0;0;6;0;436;0;0;0;0;0;0;7;0;1745;0;0;0;0;8;0;1916;0;0;0;0;9;0;1046;0;0;0;0
13.01.19;23:07:00;1;257;8308;0;2;0;820;0;0;0;0;3;0;956;0;0;0;0;4;0;801;0;0;0;0;5;0;473;0;0;0;0;0;0;6;0;436;0;0;0;0;0;0;7;0;1745;0;0;0;0;8;0;1916;0;0;0;0;9;0;1046;0;0;0;0
13.01.19;23:00:00;1;259;8273;0;2;0;820;0;0;0;0;3;0;956;0;0;0;0;4;0;801;0;0;0;0;5;0;473;0;0;0;0;0;0;6;0;436;0;0;0;0;0;0;7;0;1745;0;0;0;0;8;0;1916;0;0;0;0;9;0;1046;0;0;0;0
13.01.19;22:55:00;1;266;8251;0;2;0;820;0;0;0;0;3;0;956;0;0;0;0;4;0;801;0;0;0;0;5;0;473;2;0;0;0;0;0;6;0;436;2;0;0;0;0;0;7;0;1745;0;0;0;0;8;0;1916;0;0;0;0;9;0;1046;0;0;0;0
13.01.19;22:50:00;1;294;8229;0;2;0;820;0;0;0;0;3;0;956;0;0;0;0;4;0;801;0;0;0;0;5;0;473;2;0;0;0;0;0;6;0;436;2;0;0;0;0;0;7;0;1745;0;0;0;0;8;0;1916;0;0;0;0;9;0;1046;0;0;0;0
13.01.19;22:45:00;1;329;8204;0;2;0;820;0;0;0;0;3;0;956;0;0;0;0;4;0;801;0;0;0;0;5;0;473;2;0;0;0;0;0;6;0;436;2;0;0;0;0;0;7;0;1745;0;0;0;0;8;0;1916;0;0;0;0;9;0;1046;0;0;0;0
13.01.19;22:40:00;1;364;8177;0;2;0;820;0;0;0;0;3;0;956;0;0;0;0;4;0;801;0;0;0;0;5;0;473;2;0;0;0;0;0;6;0;436;2;0;0;0;0;0;7;0;1745;0;0;0;0;8;0;1916;0;0;0;0;9;0;1046;0;0;0;0
13.01.19;22:35:00;1;937;8146;0;2;0;820;0;0;0;0;3;0;956;0;0;0;0;4;0;801;0;0;0;0;5;0;473;2;0;0;0;0;0;6;0;436;2;0;0;0;0;0;7;0;1745;0;0;0;0;8;0;1916;0;0;0;0;9;0;1046;0;0;0;0
13.01.19;22:30:00;1;409;8086;0;2;0;820;0;0;0;0;3;0;956;0;0;0;0;4;0;801;0;0;0;0;5;0;473;2;0;0;0;0;0;6;0;436;2;0;0;0;0;0;7;0;1745;0;0;0;0;8;0;1916;0;0;0;0;9;0;1046;0;0;0;0
13.01.19;22:25:00;1;401;8051;0;2;0;820;0;0;0;0;3;0;956;0;0;0;0;4;0;801;0;0;0;0;5;0;473;2;0;0;0;0;0;6;0;436;2;0;0;0;0;0;7;0;1745;0;0;0;0;8;0;1916;0;0;0;0;9;0;1046;0;0;0;0
13.01.19;22:20:00;1;673;8017;0;2;0;820;0;0;0;0;3;0;956;0;0;0;0;4;0;801;0;0;0;0;5;0;473;2;0;0;0;0;0;6;0;436;2;0;0;0;0;0;7;0;1745;0;0;0;0;8;0;1916;0;0;0;0;9;0;1046;0;0;0;0
13.01.19;22:15:00;1;711;7939;0;2;0;820;0;0;0;0;3;0;956;0;0;0;0;4;0;801;0;0;0;0;5;0;473;2;0;0;0;0;0;6;0;436;2;0;0;0;0;0;7;0;1745;0;0;0;0;8;0;1916;0;0;0;0;9;0;1046;0;0;0;0
13.01.19;22:10:00;1;484;7881;0;2;0;820;0;0;0;0;3;0;956;0;0;0;0;4;0;801;0;0;0;0;5;0;473;2;0;0;0;0;0;6;0;436;2;0;0;0;0;0;7;0;1745;0;0;0;0;8;0;1916;0;0;0;0;9;0;1046;0;0;0;0
13.01.19;22:05:00;1;595;7839;0;2;0;820;0;0;0;0;3;0;956;0;0;0;0;4;0;801;0;0;0;0;5;0;473;2;0;0;0;0;0;6;0;436;2;0;0;0;0;0;7;0;1745;0;0;0;0;8;0;1916;0;0;0;0;9;0;1046;0;0;0;0
13.01.19;22:00:00;1;1483;7778;0;2;0;820;0;0;0;0;3;0;956;0;0;0;0;4;0;801;0;0;0;0;5;0;473;2;0;0;0;0;0;6;0;436;2;0;0;0;0;0;7;0;1745;0;0;0;0;8;0;1916;0;0;0;0;9;0;1046;0;0;0;0
13.01.19;21:55:00;1;2105;7633;0;2;0;820;0;0;0;0;3;0;956;0;0;0;0;4;0;801;0;0;0;0;5;0;473;2;0;0;0;0;0;6;0;436;2;0;0;0;0;0;7;0;1745;0;0;0;0;8;0;1916;0;0;0;0;9;0;1046;0;0;0;0
13.01.19;21:50:00;1;2612;7442;0;2;0;820;0;0;0;0;3;0;956;0;0;0;0;4;0;801;0;0;0;0;5;0;473;2;0;0;0;0;0;6;0;436;2;0;0;0;0;0;7;0;1745;0;0;0;0;8;0;1916;0;0;0;0;9;0;1046;0;0;0;0
13.01.19;21:45:00;1;2631;7224;0;2;0;820;0;0;0;0;3;0;956;0;0;0;0;4;0;801;0;0;0;0;5;0;473;2;0;0;0;0;0;6;0;436;2;0;0;0;0;0;7;0;1745;0;0;0;0;8;0;1916;0;0;0;0;9;0;1046;0;0;0;0
13.01.19;21:40:00;1;2641;7005;0;2;0;820;0;0;0;0;3;0;956;0;0;0;0;4;0;801;0;0;0;0;5;0;473;2;0;0;0;0;0;6;0;436;2;0;0;0;0;0;7;0;1745;0;0;0;0;8;0;1916;0;0;0;0;9;0;1046;0;0;0;0
13.01.19;21:35:00;1;1768;6769;0;2;0;820;0;0;0;0;3;0;956;0;0;0;0;4;0;801;0;0;0;0;5;0;473;2;0;0;0;0;0;6;0;436;2;0;0;0;0;0;7;0;1745;0;0;0;0;8;0;1916;0;0;0;0;9;0;1046;0;0;0;0
13.01.19;21:30:00;1;629;6667;0;2;0;820;0;0;0;0;3;0;956;0;0;0;0;4;0;801;0;0;0;0;5;0;473;2;0;0;0;0;0;6;0;436;2;0;0;0;0;0;7;0;1745;0;0;0;0;8;0;1916;0;0;0;0;9;0;1046;0;0;0;0
13.01.19;21:25:00;1;594;6615;0;2;0;820;0;0;0;0;3;0;956;0;0;0;0;4;0;801;0;0;0;0;5;0;473;2;0;0;0;0;0;6;0;436;2;0;0;0;0;0;7;0;1745;0;0;0;0;8;0;1916;0;0;0;0;9;0;1046;0;0;0;0
13.01.19;21:20:00;1;458;6566;0;2;0;820;0;0;0;0;3;0;956;0;0;0;0;4;0;801;0;0;0;0;5;0;473;2;0;0;0;0;0;6;0;436;2;0;0;0;0;0;7;0;1745;0;0;0;0;8;0;1916;0;0;0;0;9;0;1046;0;0;0;0
13.01.19;21:15:00;1;465;6528;0;2;0;820;0;0;0;0;3;0;956;0;0;0;0;4;0;801;0;0;0;0;5;0;473;2;0;0;0;0;0;6;0;436;2;0;0;0;0;0;7;0;1745;0;0;0;0;8;0;1916;0;0;0;0;9;0;1046;0;0;0;0
13.01.19;21:10:00;1;470;6489;0;2;0;820;0;0;0;0;3;0;956;0;0;0;0;4;0;801;0;0;0;0;5;0;473;2;0;0;0;0;0;6;0;436;2;0;0;0;0;0;7;0;1745;0;0;0;0;8;0;1916;0;0;0;0;9;0;1046;0;0;0;0
13.01.19;21:05:00;1;684;6449;0;2;0;820;0;0;0;0;3;0;956;0;0;0;0;4;0;801;0;0;0;0;5;0;473;2;0;0;0;0;0;6;0;436;2;0;0;0;0;0;7;0;1745;0;0;0;0;8;0;1916;0;0;0;0;9;0;1046;0;0;0;0
13.01.19;21:00:00;1;503;6386;0;2;0;820;0;0;0;0;3;0;956;0;0;0;0;4;0;801;0;0;0;0;5;0;473;2;0;0;0;0;0;6;0;436;2;0;0;0;0;0;7;0;1745;0;0;0;0;8;0;1916;0;0;0;0;9;0;1046;0;0;0;0
13.01.19;20:55:00;1;251;6360;0;2;0;820;0;0;0;0;3;0;956;0;0;0;0;4;0;801;0;0;0;0;5;0;473;2;0;0;0;0;0;6;0;436;2;0;0;0;0;0;7;0;1745;0;0;0;0;8;0;1916;0;0;0;0;9;0;1046;0;0;0;0
13.01.19;20:50:00;1;215;6339;0;2;0;820;0;0;0;0;3;0;956;0;0;0;0;4;0;801;0;0;0;0;5;0;473;2;0;0;0;0;0;6;0;436;2;0;0;0;0;0;7;0;1745;0;0;0;0;8;0;1916;0;0;0;0;9;0;1046;0;0;0;0
13.01.19;20:45:00;1;221;6321;0;2;0;820;0;0;0;0;3;0;956;0;0;0;0;4;0;801;0;0;0;0;5;0;473;2;0;0;0;0;0;6;0;436;2;0;0;0;0;0;7;0;1745;0;0;0;0;8;0;1916;0;0;0;0;9;0;1046;0;0;0;0
13.01.19;20:40:00;1;302;6302;0;2;0;820;0;0;0;0;3;0;956;0;0;0;0;4;0;801;0;0;0;0;5;0;473;2;0;0;0;0;0;6;0;436;2;0;0;0;0;0;7;0;1745;0;0;0;0;8;0;1916;0;0;0;0;9;0;1046;0;0;0;0
13.01.19;20:35:00;1;322;6275;0;2;0;820;0;0;0;0;3;0;956;0;0;0;0;4;0;801;0;0;0;0;5;0;473;2;0;0;0;0;0;6;0;436;2;0;0;0;0;0;7;0;1745;0;0;0;0;8;0;1916;0;0;0;0;9;0;1046;0;0;0;0
13.01.19;20:30:00;1;313;6248;0;2;0;820;0;0;0;0;3;0;956;0;0;0;0;4;0;801;0;0;0;0;5;0;473;2;0;0;0;0;0;6;0;436;2;0;0;0;0;0;7;0;1745;0;0;0;0;8;0;1916;0;0;0;0;9;0;1046;0;0;0;0
13.01.19;20:25:00;1;487;6222;0;2;0;820;0;0;0;0;3;0;956;0;0;0;0;4;0;801;0;0;0;0;5;0;473;2;0;0;0;0;0;6;0;436;2;0;0;0;0;0;7;0;1745;0;0;0;0;8;0;1916;0;0;0;0;9;0;1046;0;0;0;0
13.01.19;20:20:00;1;282;6173;0;2;0;820;0;0;0;0;3;0;956;0;0;0;0;4;0;801;0;0;0;0;5;0;473;2;0;0;0;0;0;6;0;436;2;0;0;0;0;0;7;0;1745;0;0;0;0;8;0;1916;0;0;0;0;9;0;1046;0;0;0;0
13.01.19;20:15:00;1;280;6149;0;2;0;820;0;0;0;0;3;0;956;0;0;0;0;4;0;801;0;0;0;0;5;0;473;2;0;0;0;0;0;6;0;436;2;0;0;0;0;0;7;0;1745;0;0;0;0;8;0;1916;0;0;0;0;9;0;1046;0;0;0;0
13.01.19;20:10:00;1;279;6126;0;2;0;820;0;0;0;0;3;0;956;0;0;0;0;4;0;801;0;0;0;0;5;0;473;2;0;0;0;0;0;6;0;436;2;0;0;0;0;0;7;0;1745;0;0;0;0;8;0;1916;0;0;0;0;9;0;1046;0;0;0;0
13.01.19;20:05:00;1;213;6103;0;2;0;820;0;0;0;0;3;0;956;0;0;0;0;4;0;801;0;0;0;0;5;0;473;2;0;0;0;0;0;6;0;436;2;0;0;0;0;0;7;0;1745;0;0;0;0;8;0;1916;0;0;0;0;9;0;1046;0;0;0;0
13.01.19;20:00:00;1;213;6085;0;2;0;820;0;0;0;0;3;0;956;0;0;0;0;4;0;801;0;0;0;0;5;0;473;2;0;0;0;0;0;6;0;436;2;0;0;0;0;0;7;0;1745;0;0;0;0;8;0;1916;0;0;0;0;9;0;1046;0;0;0;0
13.01.19;19:55:00;1;212;6067;0;2;0;820;0;0;0;0;3;0;956;0;0;0;0;4;0;801;0;0;0;0;5;0;473;2;0;0;0;0;0;6;0;436;2;0;0;0;0;0;7;0;1745;0;0;0;0;8;0;1916;0;0;0;0;9;0;1046;0;0;0;0
13.01.19;19:50:00;1;412;6049;0;2;0;820;0;0;0;0;3;0;956;0;0;0;0;4;0;801;0;0;0;0;5;0;473;2;0;0;0;0;0;6;0;436;2;0;0;0;0;0;7;0;1745;0;0;0;0;8;0;1916;0;0;0;0;9;0;1046;0;0;0;0
13.01.19;19:45:00;1;420;6008;0;2;0;820;0;0;0;0;3;0;956;0;0;0;0;4;0;801;0;0;0;0;5;0;473;2;0;0;0;0;0;6;0;436;2;0;0;0;0;0;7;0;1745;0;0;0;0;8;0;1916;0;0;0;0;9;0;1046;0;0;0;0
13.01.19;19:40:00;1;253;5986;0;2;0;820;0;0;0;0;3;0;956;0;0;0;0;4;0;801;0;0;0;0;5;0;473;2;0;0;0;0;0;6;0;436;2;0;0;0;0;0;7;0;1745;0;0;0;0;8;0;1916;0;0;0;0;9;0;1046;0;0;0;0
13.01.19;19:35:00;1;254;5965;0;2;0;820;0;0;0;0;3;0;956;0;0;0;0;4;0;801;0;0;0;0;5;0;473;2;0;0;0;0;0;6;0;436;2;0;0;0;0;0;7;0;1745;0;0;0;0;8;0;1916;0;0;0;0;9;0;1046;0;0;0;0
13.01.19;19:30:00;1;256;5943;0;2;0;820;0;0;0;0;3;0;956;0;0;0;0;4;0;801;0;0;0;0;5;0;473;2;0;0;0;0;0;6;0;436;2;0;0;0;0;0;7;0;1745;0;0;0;0;8;0;1916;0;0;0;0;9;0;1046;0;0;0;0
13.01.19;19:25:00;1;212;5922;0;2;0;820;0;0;0;0;3;0;956;0;0;0;0;4;0;801;0;0;0;0;5;0;473;2;0;0;0;0;0;6;0;436;2;0;0;0;0;0;7;0;1745;0;0;0;0;8;0;1916;0;0;0;0;9;0;1046;0;0;0;0
13.01.19;19:20:00;1;212;5905;0;2;0;820;0;0;0;0;3;0;956;0;0;0;0;4;0;801;0;0;0;0;5;0;473;2;0;0;0;0;0;6;0;436;2;0;0;0;0;0;7;0;1745;0;0;0;0;8;0;1916;0;0;0;0;9;0;1046;0;0;0;0
13.01.19;19:15:00;1;567;5883;0;2;0;820;0;0;0;0;3;0;956;0;0;0;0;4;0;801;0;0;0;0;5;0;473;2;0;0;0;0;0;6;0;436;2;0;0;0;0;0;7;0;1745;0;0;0;0;8;0;1916;0;0;0;0;9;0;1046;0;0;0;0
13.01.19;19:10:00;1;214;5842;0;2;0;820;0;0;0;0;3;0;956;0;0;0;0;4;0;801;0;0;0;0;5;0;473;2;0;0;0;0;0;6;0;436;2;0;0;0;0;0;7;0;1745;0;0;0;0;8;0;1916;0;0;0;0;9;0;1046;0;0;0;0
13.01.19;19:05:00;1;215;5824;0;2;0;820;0;0;0;0;3;0;956;0;0;0;0;4;0;801;0;0;0;0;5;0;473;2;0;0;0;0;0;6;0;436;2;0;0;0;0;0;7;0;1745;0;0;0;0;8;0;1916;0;0;0;0;9;0;1046;0;0;0;0
13.01.19;19:00:00;1;215;5806;0;2;0;820;0;0;0;0;3;0;956;0;0;0;0;4;0;801;0;0;0;0;5;0;473;2;0;0;0;0;0;6;0;436;2;0;0;0;0;0;7;0;1745;0;0;0;0;8;0;1916;0;0;0;0;9;0;1046;0;0;0;0
13.01.19;18:55:00;1;215;5788;0;2;0;820;0;0;0;0;3;0;956;0;0;0;0;4;0;801;0;0;0;0;5;0;473;2;0;0;0;0;0;6;0;436;2;0;0;0;0;0;7;0;1745;0;0;0;0;8;0;1916;0;0;0;0;9;0;1046;0;0;0;0
13.01.19;18:50:00;1;215;5770;0;2;0;820;0;0;0;0;3;0;956;0;0;0;0;4;0;801;0;0;0;0;5;0;473;2;0;0;0;0;0;6;0;436;2;0;0;0;0;0;7;0;1745;0;0;0;0;8;0;1916;0;0;0;0;9;0;1046;0;0;0;0
13.01.19;18:45:00;1;216;5752;0;2;0;820;0;0;0;0;3;0;956;0;0;0;0;4;0;801;0;0;0;0;5;0;473;2;0;0;0;0;0;6;0;436;2;0;0;0;0;0;7;0;1745;0;0;0;0;8;0;1916;0;0;0;0;9;0;1046;0;0;0;0
13.01.19;18:40:00;1;256;5733;0;2;0;820;0;0;0;0;3;0;956;0;0;0;0;4;0;801;0;0;0;0;5;0;473;2;0;0;0;0;0;6;0;436;2;0;0;0;0;0;7;0;1745;0;0;0;0;8;0;1916;0;0;0;0;9;0;1046;0;0;0;0
13.01.19;18:35:00;1;437;5712;0;2;0;820;0;0;0;0;3;0;956;0;0;0;0;4;0;801;0;0;0;0;5;0;473;2;0;0;0;0;0;6;0;436;2;0;0;0;0;0;7;0;1745;0;0;0;0;8;0;1916;0;0;0;0;9;0;1046;0;0;0;0
13.01.19;18:30:00;1;306;5663;0;2;0;820;0;0;0;0;3;0;956;0;0;0;0;4;0;801;0;0;0;0;5;0;473;2;0;0;0;0;0;6;0;436;2;0;0;0;0;0;7;0;1745;0;0;0;0;8;0;1916;0;0;0;0;9;0;1046;0;0;0;0
13.01.19;18:25:00;1;278;5639;0;2;0;820;0;0;0;0;3;0;956;0;0;0;0;4;0;801;0;0;0;0;5;0;473;2;0;0;0;0;0;6;0;436;2;0;0;0;0;0;7;0;1745;0;0;0;0;8;0;1916;0;0;0;0;9;0;1046;0;0;0;0
13.01.19;18:20:00;1;279;5615;0;2;0;820;0;0;0;0;3;0;956;0;0;0;0;4;0;801;0;0;0;0;5;0;473;2;0;0;0;0;0;6;0;436;2;0;0;0;0;0;7;0;1745;0;0;0;0;8;0;1916;0;0;0;0;9;0;1046;0;0;0;0
13.01.19;18:15:00;1;280;5592;0;2;0;820;0;0;0;0;3;0;956;0;0;0;0;4;0;801;0;0;0;0;5;0;473;2;0;0;0;0;0;6;0;436;2;0;0;0;0;0;7;0;1745;0;0;0;0;8;0;1916;0;0;0;0;9;0;1046;0;0;0;0
13.01.19;18:10:00;1;280;5569;0;2;0;820;0;0;0;0;3;0;956;0;0;0;0;4;0;801;0;0;0;0;5;0;473;2;0;0;0;0;0;6;0;436;2;0;0;0;0;0;7;0;1745;0;0;0;0;8;0;1916;0;0;0;0;9;0;1046;0;0;0;0
13.01.19;18:05:00;1;278;5545;0;2;0;820;0;0;0;0;3;0;956;0;0;0;0;4;0;801;0;0;0;0;5;0;473;2;0;0;0;0;0;6;0;436;2;0;0;0;0;0;7;0;1745;0;0;0;0;8;0;1916;0;0;0;0;9;0;1046;0;0;0;0
13.01.19;18:00:00;1;754;5522;0;2;0;820;0;0;0;0;3;0;956;0;0;0;0;4;0;801;0;0;0;0;5;0;473;2;0;0;0;0;0;6;0;436;2;0;0;0;0;0;7;0;1745;0;0;0;0;8;0;1916;0;0;0;0;9;0;1046;0;0;0;0
13.01.19;17:55:00;1;214;5471;0;2;0;820;0;0;0;0;3;0;956;0;0;0;0;4;0;801;0;0;0;0;5;0;473;2;0;0;0;0;0;6;0;436;2;0;0;0;0;0;7;0;1745;0;0;0;0;8;0;1916;0;0;0;0;9;0;1046;0;0;0;0
13.01.19;17:50:00;1;214;5453;0;2;0;820;0;0;0;0;3;0;956;0;0;0;0;4;0;801;0;0;0;0;5;0;473;2;0;0;0;0;0;6;0;436;2;0;0;0;0;0;7;0;1745;0;0;0;0;8;0;1916;0;0;0;0;9;0;1046;0;0;0;0
13.01.19;17:45:00;1;213;5436;0;2;0;820;0;0;0;0;3;0;956;0;0;0;0;4;0;801;0;0;0;0;5;0;473;2;0;0;0;0;0;6;0;436;2;0;0;0;0;0;7;0;1745;0;0;0;0;8;0;1916;0;0;0;0;9;0;1046;0;0;0;0
13.01.19;17:40:00;1;249;5418;0;2;0;820;0;0;0;0;3;0;956;0;0;0;0;4;0;801;0;0;0;0;5;0;473;2;0;0;0;0;0;6;0;436;2;0;0;0;0;0;7;0;1745;0;0;0;0;8;0;1916;0;0;0;0;9;0;1046;0;0;0;0
13.01.19;17:35:00;1;255;5397;0;2;0;820;0;0;0;0;3;0;956;0;0;0;0;4;0;801;0;0;0;0;5;0;473;2;0;0;0;0;0;6;0;436;2;0;0;0;0;0;7;0;1745;0;0;0;0;8;0;1916;0;0;0;0;9;0;1046;0;0;0;0
13.01.19;17:30:00;1;257;5375;0;2;0;820;0;0;0;0;3;0;956;0;0;0;0;4;0;801;0;0;0;0;5;0;473;2;0;0;0;0;0;6;0;436;2;0;0;0;0;0;7;0;1745;0;0;0;0;8;0;1916;0;0;0;0;9;0;1046;0;0;0;0
13.01.19;17:25:00;1;391;5353;0;2;0;820;0;0;0;0;3;0;956;0;0;0;0;4;0;801;0;0;0;0;5;0;473;2;0;0;0;0;0;6;0;436;2;0;0;0;0;0;7;0;1745;0;0;0;0;8;0;1916;0;0;0;0;9;0;1046;0;0;0;0
13.01.19;17:20:00;1;214;5308;0;2;0;820;0;0;0;0;3;0;956;0;0;0;0;4;0;801;0;0;0;0;5;0;473;2;0;0;0;0;0;6;0;436;2;0;0;0;0;0;7;0;1745;0;0;0;0;8;0;1916;0;0;0;0;9;0;1046;0;0;0;0
13.01.19;17:15:00;1;214;5290;0;2;0;820;0;0;0;0;3;0;956;0;0;0;0;4;0;801;0;0;0;0;5;0;473;2;0;0;0;0;0;6;0;436;2;0;0;0;0;0;7;0;1745;0;0;0;0;8;0;1916;0;0;0;0;9;0;1046;0;0;0;0
13.01.19;17:10:00;1;214;5272;0;2;0;820;0;0;0;0;3;0;956;0;0;0;0;4;0;801;0;0;0;0;5;0;473;2;0;0;0;0;0;6;0;436;2;0;0;0;0;0;7;0;1745;0;0;0;0;8;0;1916;0;0;0;0;9;0;1046;0;0;0;0
13.01.19;17:05:00;1;213;5254;0;2;0;820;0;0;0;0;3;0;956;0;0;0;0;4;0;801;0;0;0;0;5;0;473;2;0;0;0;0;0;6;0;436;2;0;0;0;0;0;7;0;1745;0;0;0;0;8;0;1916;0;0;0;0;9;0;1046;0;0;0;0
13.01.19;17:00:00;1;214;5236;0;2;0;820;0;0;0;0;3;0;956;0;0;0;0;4;0;801;0;0;0;0;5;0;473;2;0;0;0;0;0;6;0;436;2;0;0;0;0;0;7;0;1745;0;0;0;0;8;0;1916;0;0;0;0;9;0;1046;0;0;0;0
13.01.19;16:55:00;1;215;5218;0;2;0;820;0;0;0;0;3;0;956;0;0;0;0;4;0;801;0;0;0;0;5;0;473;2;0;0;0;0;0;6;0;436;2;0;0;0;0;0;7;0;1745;0;0;0;0;8;0;1916;0;0;0;0;9;0;1046;0;0;0;0
13.01.19;16:50:00;1;647;5200;0;2;0;820;0;0;0;0;3;0;956;0;0;0;0;4;0;801;0;0;0;0;5;0;473;2;0;0;0;0;0;6;0;436;0;0;0;0;0;0;7;0;1745;0;0;0;0;8;0;1916;0;0;0;0;9;0;1046;0;0;0;0
13.01.19;16:45:00;1;226;5155;0;2;0;820;0;0;0;0;3;0;956;0;0;108;4;4;0;801;0;0;0;0;5;0;473;2;0;0;0;0;0;6;0;436;2;0;0;0;0;0;7;0;1745;0;0;0;0;8;0;1916;0;0;0;0;9;0;1046;0;0;0;0
13.01.19;16:40:00;1;246;5137;0;2;0;820;0;0;216;5;3;0;956;6;0;287;10;4;0;801;0;0;0;0;5;0;473;2;0;0;0;0;0;6;0;436;2;0;0;0;0;0;7;0;1745;0;0;0;0;8;0;1916;0;0;0;0;9;0;1046;0;0;0;0
13.01.19;16:35:00;1;251;5116;0;2;0;820;6;0;287;7;3;0;956;6;0;316;11;4;0;801;0;0;41;3;5;0;473;2;0;0;0;0;0;6;0;436;2;0;0;0;0;0;7;0;1745;0;0;0;0;8;0;1916;0;0;0;0;9;0;1046;0;0;0;0
13.01.19;16:30:00;1;251;5095;0;2;0;820;6;0;311;7;3;0;956;6;0;370;11;4;0;801;1;0;90;6;5;0;473;2;0;0;0;0;0;6;0;436;0;0;0;0;0;0;7;0;1745;0;0;0;0;8;0;1916;0;0;0;0;9;0;1046;0;0;0;0
13.01.19;16:25:00;1;215;5074;0;2;0;820;6;0;333;7;3;0;956;6;0;394;11;4;0;801;1;0;111;6;5;0;473;2;0;0;0;0;0;6;0;436;2;3;1;70;138;11;7;0;1745;0;0;38;1;8;0;1916;0;0;40;1;9;0;1046;0;0;85;2
13.01.19;16:20:00;1;821;5056;0;2;0;820;6;0;364;7;3;0;956;6;2;430;11;4;0;801;1;0;151;6;5;0;473;1;0;0;121;118;16;6;0;436;23;4;2;180;508;16;7;0;1745;6;0;288;11;8;0;1916;6;0;293;10;9;0;1046;6;0;310;7
13.01.19;16:15:00;1;271;5008;0;2;0;820;6;0;379;7;3;1;956;6;3;439;11;4;0;801;1;0;176;6;5;0;473;1;0;0;279;276;16;6;0;436;23;5;4;181;544;16;7;0;1745;6;0;339;11;8;0;1916;6;0;345;11;9;0;1046;6;0;365;8
13.01.19;16:10:00;1;273;4985;0;2;0;820;6;0;387;7;3;0;956;6;2;467;11;4;0;801;1;0;191;7;5;0;473;26;0;0;350;394;17;6;0;436;23;5;4;182;558;16;7;0;1745;6;0;369;11;8;0;1916;6;0;375;11;9;0;1046;6;0;401;8
13.01.19;16:05:00;1;274;4962;0;2;0;820;6;0;401;7;3;1;956;6;3;488;11;4;0;801;1;0;214;7;5;0;473;23;0;1;407;463;17;6;0;436;23;6;4;248;576;17;7;0;1745;6;0;405;11;8;0;1916;6;0;401;11;9;0;1046;6;0;441;8
13.01.19;16:00:00;1;274;4940;0;2;0;820;6;0;405;7;3;2;956;6;3;490;11;4;0;801;1;0;222;7;5;0;473;23;0;0;420;596;17;6;0;436;23;4;3;182;583;17;7;0;1745;6;0;416;11;8;0;1916;6;0;408;11;9;0;1046;6;0;451;8
13.01.19;15:55:00;1;273;4917;0;2;0;820;6;4;401;8;3;2;956;4;3;484;11;4;0;801;3;0;223;7;5;3;473;4;0;3;419;478;17;6;0;436;23;7;6;187;594;17;7;0;1745;6;1;440;11;8;0;1916;6;1;445;11;9;2;1046;6;1;460;8
13.01.19;15:50:00;1;282;4894;0;2;0;820;6;0;408;8;3;4;956;3;7;466;11;4;0;801;3;0;217;7;5;0;473;8;0;1;416;467;17;6;0;436;23;6;4;182;586;18;7;0;1745;6;0;419;12;8;0;1916;6;1;425;11;9;0;1045;6;0;483;8
13.01.19;15:45:00;1;209;4870;0;2;0;820;6;0;411;8;3;1;955;6;3;501;11;4;0;801;1;0;217;8;5;0;473;23;0;2;421;455;17;6;0;436;23;4;3;182;589;18;7;0;1745;4;0;426;12;8;0;1916;6;0;440;11;9;1;1045;3;1;444;8
13.01.19;15:40:00;1;233;4853;0;2;1;820;6;5;408;8;3;1;955;6;10;478;11;4;0;801;3;0;233;8;5;12;473;1;1;3;414;645;17;6;0;436;23;5;4;443;598;19;7;2;1745;3;4;422;12;8;0;1916;3;2;433;12;9;3;1045;6;2;492;8
13.01.19;15:35:00;1;248;4833;0;2;4;820;6;7;421;8;3;2;955;6;6;530;12;4;1;801;3;1;199;8;5;8;472;26;1;3;432;689;18;6;45;436;1;10;16;501;484;20;7;1;1745;6;7;477;12;8;1;1916;6;7;477;12;9;0;1045;6;6;499;8
13.01.19;15:30:00;1;247;4813;0;2;60;820;4;83;356;9;3;5;955;6;11;540;12;4;24;801;3;25;198;8;5;12;472;26;3;6;440;707;18;6;73;431;4;30;43;477;460;20;7;17;1745;6;28;435;12;8;18;1916;6;30;458;12;9;5;1045;6;6;545;9
13.01.19;15:25:00;1;457;4788;0;2;66;815;4;89;359;9;3;0;955;6;0;561;12;4;25;799;3;25;198;8;5;17;470;26;4;9;438;710;18;6;77;425;4;36;54;477;460;20;7;26;1743;4;40;468;12;8;28;1914;4;40;468;12;9;3;1045;6;7;555;9
13.01.19;15:20:00;1;205;4746;0;2;58;809;4;82;358;9;3;13;955;3;24;508;12;4;22;797;3;23;199;8;5;10;469;26;3;4;439;716;18;6;68;418;4;31;48;477;460;20;7;4;1741;6;12;493;13;8;7;1912;6;12;494;12;9;0;1044;6;0;573;9
13.01.19;15:15:00;1;205;4729;0;2;63;804;4;87;358;9;3;4;953;6;10;546;12;4;27;795;3;28;198;8;5;10;468;26;1;4;440;712;19;6;71;413;4;30;46;477;460;20;7;44;1741;4;69;355;13;8;42;1911;4;67;363;12;9;5;1044;4;12;524;9
13.01.19;15:10:00;1;206;4711;0;2;69;799;4;91;356;9;3;7;953;6;13;542;12;4;30;793;3;31;198;8;5;13;467;26;3;9;439;708;19;6;73;407;4;28;42;477;460;20;7;37;1737;4;73;364;13;8;45;1908;4;74;371;13;9;4;1044;3;8;548;9
13.01.19;15:05:00;1;205;4694;0;2;96;793;4;119;354;9;3;39;952;6;61;495;12;4;43;790;3;45;198;8;5;77;465;4;22;25;380;610;20;6;80;401;4;26;38;477;460;20;7;74;1734;4;103;421;13;8;79;1904;4;105;409;13;9;7;1043;6;11;562;9
13.01.19;15:00:00;1;206;4677;0;2;142;785;4;167;351;9;3;86;949;4;121;483;13;4;84;787;3;88;201;8;5;97;459;4;31;31;380;611;20;6;105;393;4;41;59;477;460;20;7;130;1728;4;152;461;13;8;129;1897;4;154;450;13;9;44;1043;6;60;517;9
13.01.19;14:55:00;1;206;4660;0;2;149;774;4;174;358;9;3;90;942;4;128;499;13;4;93;780;5;96;201;8;5;93;451;4;33;32;380;610;20;6;103;385;4;29;43;477;460;20;7;130;1717;4;170;465;13;8;139;1887;4;173;464;13;9;78;1039;4;102;490;10
13.01.19;14:50:00;1;490;4633;0;2;144;761;4;170;363;9;3;89;935;4;125;493;13;4;92;772;3;96;200;8;5;87;443;4;31;31;380;610;20;6;100;376;4;45;63;477;460;20;7;142;1706;4;170;454;13;8;139;1875;4;173;457;13;9;74;1033;4;98;481;10
13.01.19;14:45:00;1;206;4598;0;2;139;749;4;164;362;9;3;87;927;4;124;477;13;4;88;764;3;92;199;8;5;84;436;4;27;27;380;610;20;6;89;368;4;46;66;477;460;20;7;141;1694;4;163;443;13;8;136;1863;4;169;450;13;9;71;1027;4;97;463;10
13.01.19;14:40:00;1;222;4581;0;2;154;738;4;181;359;9;3;98;920;4;137;497;13;4;96;757;3;100;201;8;5;95;428;4;32;35;380;611;20;6;92;360;4;36;52;477;460;20;7;155;1683;4;184;446;13;8;160;1852;4;190;447;13;9;85;1021;4;107;486;10
13.01.19;14:35:00;1;246;4562;0;2;173;725;4;197;354;9;3;111;912;4;150;505;13;4;114;749;5;120;202;8;5;95;421;4;34;32;380;610;20;6;101;352;4;37;52;477;460;20;7;178;1670;4;214;459;13;8;183;1839;4;217;458;13;9;98;1013;4;121;481;10
13.01.19;14:30:00;1;248;4542;0;2;179;710;4;203;353;9;3;112;902;4;150;521;13;4;117;739;5;122;201;8;5;100;412;4;37;35;380;610;20;6;95;344;4;49;65;477;460;20;7;177;1655;4;215;453;13;8;187;1823;4;221;438;13;9;100;1005;4;126;483;10
13.01.19;14:25:00;1;236;4521;0;2;199;695;4;226;355;9;3;137;893;4;173;501;13;4;130;730;5;135;200;8;5;104;404;4;42;38;380;611;20;6;106;336;4;35;51;477;460;20;7;212;1640;4;247;442;13;8;210;1808;4;249;441;13;9;112;997;4;141;516;10
13.01.19;14:20:00;1;541;4501;0;2;227;679;4;257;361;9;3;163;882;4;200;504;13;4;156;719;5;162;200;8;5;118;395;4;47;42;380;610;20;6;112;327;4;45;60;477;460;20;7;258;1623;4;297;481;13;8;269;1790;4;307;470;13;9;143;988;4;170;530;10
13.01.19;14:15:00;1;206;4457;0;2;188;660;4;214;358;9;3;131;868;4;167;506;13;4;122;706;5;127;207;8;5;97;386;4;37;36;380;610;20;6;98;317;4;35;49;477;460;20;7;219;1601;4;248;449;13;8;214;1768;4;247;460;13;9;116;976;4;143;515;10
13.01.19;14:10:00;1;258;4440;0;2;212;644;4;239;358;9;3;154;857;4;193;502;13;4;140;695;5;146;207;8;5;110;377;4;44;40;380;610;20;6;106;309;4;42;57;477;460;20;7;261;1583;4;286;464;13;8;256;1750;4;285;449;13;9;136;966;4;162;527;10
13.01.19;14:05:00;1;272;4418;0;2;252;627;4;277;356;9;3;188;844;4;226;489;13;4;174;684;5;181;211;8;5;127;368;4;49;41;380;610;20;6;118;300;4;54;73;477;460;19;7;315;1561;4;343;474;13;8;314;1729;4;346;459;13;9;166;955;4;194;521;10
13.01.19;14:00:00;1;272;4396;0;2;278;606;4;305;361;9;3;212;829;4;251;497;13;4;200;669;5;208;211;8;5;133;358;4;62;45;380;611;19;6;131;290;4;58;80;477;460;19;7;358;1535;4;398;473;13;8;366;1703;4;410;465;13;9;200;941;4;226;520;10
13.01.19;13:55:00;1;274;4373;0;2;356;583;4;385;359;9;3;283;811;4;324;506;13;4;272;653;5;283;223;8;5;163;346;4;70;63;380;611;19;6;162;279;4;68;89;477;460;19;7;480;1506;4;520;474;13;8;490;1672;4;531;482;13;9;261;924;4;296;528;10
13.01.19;13:50:00;1;274;4350;0;2;336;553;4;364;359;9;3;279;788;4;323;510;13;4;262;630;5;273;223;8;5;152;333;4;66;58;380;610;19;6;150;266;4;66;88;477;460;19;7;465;1466;4;504;481;13;8;486;1632;4;520;481;13;9;259;903;4;294;522;10
13.01.19;13:45:00;1;274;4327;0;2;281;525;4;310;358;9;3;238;764;4;282;515;13;4;223;608;5;233;217;8;5;138;320;4;61;54;380;610;19;6;127;253;4;59;76;477;460;19;7;402;1427;4;435;458;13;8;405;1591;4;446;490;13;9;221;881;4;255;530;10
13.01.19;13:40:00;1;620;4304;0;2;289;501;4;319;365;9;3;256;744;4;299;509;13;4;239;589;5;249;219;8;5;143;308;4;61;57;380;611;19;6;131;243;4;57;76;477;460;19;7;422;1394;4;456;453;13;8;421;1558;4;472;471;12;9;234;863;4;267;530;10
13.01.19;13:35:00;1;253;4252;0;2;293;477;4;321;370;9;3;263;723;4;304;494;13;4;243;570;5;253;222;8;5;138;297;4;63;53;380;610;19;6;132;232;4;79;99;477;460;19;7;453;1358;4;481;476;12;8;468;1522;4;500;487;12;9;248;843;4;283;525;10
13.01.19;13:30:00;1;255;4231;0;2;245;453;4;269;366;9;3;221;701;4;261;496;13;4;202;549;5;210;214;8;5;117;285;4;53;48;380;611;19;6;116;221;4;54;71;477;460;19;7;365;1320;4;404;483;12;8;381;1483;4;425;484;12;9;209;822;4;241;519;10
13.01.19;13:25:00;1;227;4210;0;2;245;432;4;270;358;9;3;225;682;4;268;497;13;4;209;532;5;218;213;8;5;120;275;4;51;44;380;611;19;6;112;212;4;59;73;477;460;19;7;382;1290;4;423;474;12;8;394;1451;4;439;482;12;9;215;804;4;247;528;10
13.01.19;13:20:00;1;212;4190;0;2;238;412;4;265;361;9;3;224;664;4;266;502;13;4;202;515;5;211;215;7;5;123;265;4;48;43;380;610;19;6;103;203;4;57;73;477;460;19;7;390;1258;4;426;464;12;8;403;1418;4;434;471;12;9;214;787;4;244;536;10